Altoona, PA

3:26 PM EDT on September 17, 2019 (GMT -0400)
Altoona-Blair County

Weather History for KAOO - August, 2019

Change the Weather History Date:

Saturday, August 17, 2019

  Actual Average Record
Temperature  
Mean Temperature 74 °F 69 °F  
Max Temperature 86 °F 80 °F 94 °F (1987)
Min Temperature 61 °F 59 °F 45 °F (1979)
Degree Days  
Heating Degree Days 0 1  
Month to date heating degree days 0 9  
Since 1 June heating degree days 38 77  
Since 1 July heating degree days 0 19  
Cooling Degree Days 9 5  
Month to date cooling degree days 110 96  
Year to date cooling degree days 572 423  
Since 1 June cooling degree days 503 390  
Growing Degree Days 22 (Base 50)    
Moisture  
Dew Point 63 °F    
Average Humidity 71    
Maximum Humidity 93    
Minimum Humidity 48    
Precipitation  
Precipitation 0.00 in 0.10 in 2.19 in (1994)
Month to date precipitation 2.04 1.62  
Year to date precipitation 28.94 22.54  
Sea Level Pressure  
Sea Level Pressure 30.01 in    
Wind  
Wind Speed 4 mph (SSW)    
Max Wind Speed 12 mph    
Max Gust Speed 16 mph    
Visibility 7 miles    
Events Fog    
T = Trace of Precipitation, MM = Missing Value Source: NWS Daily Summary

Daily Weather History Graph

Daily Weather History Graph

Search for Another Location

Airport or City:

Astronomy

Aug. 17, 2019 Rise Set
Actual Time 6:26 AM EDT 8:07 PM EDT
Civil Twilight 5:57 AM EDT 8:36 PM EDT
Nautical Twilight 5:21 AM EDT 9:11 PM EDT
Astronomical Twilight 4:44 AM EDT 9:49 PM EDT
Moon 9:34 PM EDT 8:12 AM EDT
Length of Visible Light 14h 39m
Length of Day
13h 41m
Waning Gibbous, 96% of the Moon is Illuminated
Aug 17
Waning Gibbous
Aug 23
Last Quarter
Aug 30
New
Sep 5
First Quarter
Sep 14
Full

Hourly Weather History & Observations

Time (EDT) Temp. Heat Index Dew Point Humidity Pressure Visibility Wind Dir Wind Speed Gust Speed Precip Events Conditions
12:53 AM 66.0 °F - 63.0 °F 90% 30.02 in 7.0 mi Calm Calm - N/A   Scattered Clouds
1:53 AM 66.0 °F - 63.0 °F 90% 30.01 in 7.0 mi Calm Calm - N/A   Scattered Clouds
2:53 AM 66.0 °F - 62.1 °F 87% 30.01 in 8.0 mi Calm Calm - N/A   Mostly Cloudy
3:53 AM 64.9 °F - 62.1 °F 90% 30.01 in 6.0 mi Calm Calm - N/A   Mostly Cloudy
4:53 AM 63.0 °F - 61.0 °F 93% 30.01 in 4.0 mi Calm Calm - N/A   Clear
5:36 AM 62.1 °F - 60.1 °F 93% 30.04 in 1.5 mi Calm Calm - N/A   Clear
5:39 AM 62.1 °F - 60.1 °F 93% 30.04 in 0.5 mi Calm Calm - N/A Fog Fog
5:50 AM 62.6 °F - 60.8 °F 94% 30.04 in 1.2 mi Calm Calm - N/A   Clear
5:53 AM 62.1 °F - 60.1 °F 93% 30.01 in 2.5 mi Calm Calm - N/A   Clear
6:49 AM 60.8 °F - 59.0 °F 94% 30.04 in 0.8 mi Calm Calm - N/A   Clear
6:53 AM 62.1 °F - 60.1 °F 93% 30.02 in 0.5 mi Calm Calm - N/A Fog Fog
6:59 AM 62.1 °F - 60.1 °F 93% 30.04 in 1.0 mi Calm Calm - N/A   Clear
7:12 AM 63.0 °F - 61.0 °F 93% 30.05 in 2.5 mi Calm Calm - N/A   Clear
7:53 AM 66.9 °F - 63.0 °F 87% 30.02 in 4.0 mi Calm Calm - N/A   Clear
8:53 AM 70.0 °F - 64.9 °F 84% 30.02 in 7.0 mi Calm Calm - N/A   Clear
9:53 AM 75.0 °F - 64.9 °F 71% 30.04 in 10.0 mi Calm Calm - N/A   Clear
10:53 AM 81.0 °F 82.5 °F 64.0 °F 56% 30.04 in 10.0 mi SSW 8.1 mph - N/A   Clear
11:53 AM 82.0 °F 83.1 °F 63.0 °F 52% 30.04 in 10.0 mi SW 8.1 mph - N/A   Clear
12:53 PM 82.9 °F 84.0 °F 63.0 °F 51% 30.03 in 10.0 mi South 9.2 mph - N/A   Clear
1:53 PM 84.0 °F 85.4 °F 64.0 °F 51% 30.01 in 10.0 mi SSW 12.7 mph - N/A   Clear
2:53 PM 84.9 °F 85.9 °F 63.0 °F 48% 29.99 in 10.0 mi South 8.1 mph - N/A   Clear
3:53 PM 84.9 °F 86.6 °F 64.9 °F 51% 29.98 in 10.0 mi South 8.1 mph - N/A   Clear
4:53 PM 84.9 °F 86.6 °F 64.9 °F 51% 29.96 in 10.0 mi SSW 9.2 mph - N/A   Clear
5:53 PM 82.9 °F 84.6 °F 64.9 °F 54% 29.98 in 10.0 mi SSW 5.8 mph - N/A   Mostly Cloudy
6:53 PM 84.0 °F 85.4 °F 64.0 °F 51% 29.99 in 10.0 mi West 5.8 mph - N/A   Partly Cloudy
7:53 PM 80.1 °F 81.7 °F 64.0 °F 58% 29.99 in 10.0 mi WSW 3.5 mph - N/A   Partly Cloudy
8:53 PM 73.9 °F - 66.0 °F 76% 30.00 in 10.0 mi SSW 6.9 mph - N/A   Clear
9:53 PM 75.0 °F - 66.9 °F 76% 30.01 in 10.0 mi Calm Calm - N/A   Scattered Clouds
10:53 PM 71.1 °F - 66.0 °F 84% 30.00 in 10.0 mi SSE 5.8 mph - N/A   Clear
11:53 PM 69.1 °F - 66.0 °F 90% 29.99 in 9.0 mi Calm Calm - N/A   Clear